User: anonymous   Login
Location: Pian di Sc�
(43.6333°N, 11.5500°E)
Time: 11:40:27
(UTC+00:00)
Language:

PAYLOAD A - Orbit

View from above orbital plane
View from above orbital plane
View from above satellite
View from above satellite

Ground track
Ground track

The orbit data is extracted from the following two-line orbital elements,

1 27840U 03031A   20304.94698173 -.00000003 +00000-0 +12886-4 0  9997
2 27840 098.3399 272.7451 0098517 012.5559 347.8049 14.38945919910355
Epoch (UTC): 30 October 2020 22:43:39
Eccentricity: 0.0098517
inclination: 98.3399°
perigee height: 691 km
apogee height: 832 km
right ascension of ascending node: 272.7451°
argument of perigee: 12.5559°
revolutions per day: 14.38945919
mean anomaly at epoch: 347.8049°
orbit number at epoch: 91035

The dashed part of the orbit path shows where the satellite is in the earth's shadow,  

DLR